| time (UTC) | temp F | wind direction | speed MPH | gust MPH | rain 1hr in | rain 24hr in | rain mn in | humidity % | barometer mb |
| 20260901011544 | 73 | 25 | 0.0 | 0.0 | 0.00 | 0.00 | 0.00 | 84 | 1010.7 |
| 20260901010033 | 74 | 26 | 0.0 | 0.0 | 0.00 | 0.00 | 0.00 | 84 | 1010.5 |
| 20260901004532 | 74 | 26 | 0.0 | 0.0 | 0.00 | 0.00 | 0.00 | 83 | 1010.3 |
| 20260901003040 | 74 | 25 | 0.0 | 0.0 | 0.00 | 0.00 | 0.00 | 83 | 1010.1 |
| 20260901001531 | 75 | 25 | 0.0 | 0.0 | 0.00 | 0.00 | 0.00 | 82 | 1010.0 |
| 20260901000034 | 76 | 25 | 0.0 | 0.0 | 0.00 | 0.00 | 0.00 | 81 | 1009.8 |
| 20260831234531 | 76 | 25 | 0.0 | 0.0 | 0.00 | 0.00 | 0.00 | 80 | 1009.6 |
| 20260831233030 | 77 | 26 | 0.0 | 0.0 | 0.00 | 0.00 | 0.00 | 79 | 1009.7 |
| 20260831231530 | 78 | 25 | 0.0 | 0.0 | 0.00 | 0.00 | 0.00 | 79 | 1009.8 |
| 20260831230029 | 78 | 25 | 0.0 | 0.0 | 0.00 | 0.00 | 0.00 | 78 | 1009.7 |
| 20260831224530 | 78 | 25 | 0.0 | 2.0 | 0.00 | 0.00 | 0.00 | 77 | 1009.7 |
| 20260831223037 | 79 | 25 | 0.0 | 1.0 | 0.00 | 0.00 | 0.00 | 77 | 1009.6 |
| 20260831221529 | 79 | 25 | 0.0 | 3.0 | 0.00 | 0.00 | 0.00 | 77 | 1009.4 |
| 20260831220029 | 79 | 23 | 0.0 | 2.0 | 0.00 | 0.00 | 0.00 | 77 | 1009.2 |
| 20260831214526 | 79 | 23 | 0.0 | 3.0 | 0.00 | 0.00 | 0.00 | 77 | 1009.4 |
| 20260831213024 | 78 | 43 | 0.0 | 1.0 | 0.00 | 0.00 | 0.00 | 78 | 1009.4 |
| 20260831211534 | 78 | 43 | 1.0 | 4.0 | 0.00 | 0.00 | 0.00 | 77 | 1009.4 |
| 20260831210022 | 78 | 27 | 0.0 | 4.0 | 0.00 | 0.00 | 0.00 | 78 | 1009.3 |
| 20260831204522 | 77 | 23 | 1.0 | 3.0 | 0.00 | 0.00 | 0.00 | 78 | 1009.1 |
| 20260831203029 | 77 | 23 | 1.0 | 2.0 | 0.00 | 0.00 | 0.00 | 78 | 1009.2 |
| 20260831201520 | 77 | 23 | 0.0 | 1.0 | 0.00 | 0.00 | 0.00 | 78 | 1009.3 |
| 20260831200026 | 77 | 23 | 1.0 | 3.0 | 0.00 | 0.00 | 0.00 | 78 | 1009.3 |
| 20260831194521 | 77 | 27 | 0.0 | 3.0 | 0.00 | 0.00 | 0.00 | 78 | 1009.2 |
| 20260831193017 | 76 | 12 | 1.0 | 3.0 | 0.00 | 0.00 | 0.00 | 78 | 1009.3 |
| 20260831191515 | 75 | 36 | 0.0 | 1.0 | 0.00 | 0.00 | 0.00 | 78 | 1009.2 |
| 20260831190011 | 74 | 36 | 1.0 | 4.0 | 0.00 | 0.00 | 0.00 | 79 | 1009.3 |
| 20260831184507 | 73 | 290 | 0.0 | 2.0 | 0.00 | 0.00 | 0.00 | 80 | 1009.3 |
| 20260831183118 | 73 | 23 | 1.0 | 2.0 | 0.00 | 0.00 | 0.00 | 80 | 1009.5 |
| 20260831181502 | 72 | 23 | 0.0 | 4.0 | 0.00 | 0.00 | 0.00 | 81 | 1009.7 |
| 20260831180000 | 72 | 24 | 0.0 | 2.0 | 0.00 | 0.00 | 0.00 | 82 | 1010.1 |
| 20260831174559 | 71 | 24 | 0.0 | 3.0 | 0.00 | 0.00 | 0.00 | 83 | 1010.1 |
| 20260831173058 | 70 | 24 | 1.0 | 3.0 | 0.00 | 0.00 | 0.00 | 84 | 1010.3 |
| 20260831171552 | 70 | 24 | 0.0 | 2.0 | 0.00 | 0.00 | 0.00 | 85 | 1010.2 |
| 20260831170052 | 69 | 24 | 0.0 | 1.0 | 0.00 | 0.00 | 0.00 | 85 | 1010.1 |
| 20260831164550 | 69 | 24 | 0.0 | 1.0 | 0.00 | 0.00 | 0.00 | 86 | 1010.2 |
| 20260831163048 | 69 | 24 | 1.0 | 3.0 | 0.00 | 0.00 | 0.00 | 86 | 1010.2 |
| 20260831161548 | 68 | 24 | 0.0 | 2.0 | 0.00 | 0.00 | 0.00 | 87 | 1010.4 |
| 20260831160046 | 68 | 24 | 0.0 | 3.0 | 0.00 | 0.00 | 0.00 | 87 | 1010.4 |
| 20260831154546 | 68 | 24 | 0.0 | 1.0 | 0.00 | 0.00 | 0.00 | 87 | 1010.3 |
| 20260831153043 | 68 | 24 | 0.0 | 0.0 | 0.00 | 0.00 | 0.00 | 87 | 1010.2 |
| 20260831151542 | 68 | 13 | 1.0 | 5.0 | 0.00 | 0.00 | 0.00 | 88 | 1010.0 |
| 20260831150041 | 67 | 306 | 0.0 | 3.0 | 0.00 | 0.00 | 0.00 | 87 | 1010.1 |
| 20260831144549 | 67 | 287 | 1.0 | 4.0 | 0.00 | 0.00 | 0.00 | 87 | 1010.0 |
| 20260831143037 | 67 | 286 | 0.0 | 4.0 | 0.00 | 0.00 | 0.00 | 87 | 1009.8 |
| 20260831141539 | 67 | 293 | 0.0 | 4.0 | 0.00 | 0.00 | 0.00 | 87 | 1009.8 |
| 20260831140036 | 67 | 296 | 0.0 | 3.0 | 0.00 | 0.01 | 0.00 | 87 | 1009.8 |
| 20260831134534 | 67 | 296 | 1.0 | 3.0 | 0.00 | 0.01 | 0.00 | 87 | 1010.0 |
| 20260831133035 | 67 | 296 | 1.0 | 5.0 | 0.00 | 0.01 | 0.00 | 87 | 1010.0 |
| 20260831131533 | 67 | 293 | 1.0 | 3.0 | 0.00 | 0.01 | 0.00 | 87 | 1010.1 |
| 20260831130033 | 67 | 292 | 0.0 | 3.0 | 0.00 | 0.01 | 0.00 | 87 | 1010.1 |
| 20260831124532 | 66 | 292 | 1.0 | 3.0 | 0.00 | 0.01 | 0.00 | 87 | 1010.2 |
| 20260831123031 | 66 | 290 | 0.0 | 3.0 | 0.00 | 0.01 | 0.00 | 87 | 1010.2 |
| 20260831121532 | 66 | 292 | 1.0 | 4.0 | 0.00 | 0.01 | 0.00 | 87 | 1009.9 |
| 20260831120039 | 66 | 288 | 0.0 | 5.0 | 0.00 | 0.01 | 0.00 | 87 | 1009.8 |
| 20260831114529 | 66 | 290 | 0.0 | 3.0 | 0.00 | 0.01 | 0.00 | 87 | 1010.1 |
| 20260831113028 | 66 | 18 | 1.0 | 2.0 | 0.00 | 0.01 | 0.00 | 87 | 1010.2 |
| 20260831111527 | 66 | 285 | 0.0 | 3.0 | 0.00 | 0.01 | 0.00 | 87 | 1010.2 |
| 20260831110035 | 66 | 284 | 1.0 | 3.0 | 0.00 | 0.01 | 0.00 | 87 | 1010.4 |
| 20260831104533 | 66 | 292 | 3.0 | 4.0 | 0.00 | 0.01 | 0.00 | 87 | 1010.3 |
| 20260831103025 | 66 | 304 | 1.0 | 4.0 | 0.00 | 0.01 | 0.00 | 87 | 1010.6 |
| 20260831101528 | 66 | 288 | 1.0 | 4.0 | 0.00 | 0.01 | 0.00 | 87 | 1010.7 |
| 20260831100022 | 66 | 287 | 1.0 | 4.0 | 0.00 | 0.02 | 0.00 | 87 | 1010.8 |
| 20260831094522 | 66 | 292 | 1.0 | 5.0 | 0.00 | 0.02 | 0.00 | 87 | 1011.0 |
| 20260831093022 | 66 | 273 | 3.0 | 8.0 | 0.00 | 0.02 | 0.00 | 87 | 1010.9 |
| 20260831091536 | 66 | 286 | 3.0 | 9.0 | 0.00 | 0.02 | 0.00 | 86 | 1011.0 |
| 20260831090020 | 66 | 290 | 3.0 | 7.0 | 0.00 | 0.02 | 0.00 | 86 | 1010.9 |
| 20260831084518 | 66 | 277 | 5.0 | 9.0 | 0.00 | 0.02 | 0.00 | 86 | 1011.1 |
| 20260831083016 | 66 | 289 | 4.0 | 7.0 | 0.00 | 0.02 | 0.00 | 86 | 1011.1 |
| 20260831081532 | 66 | 296 | 4.0 | 8.0 | 0.00 | 0.02 | 0.00 | 86 | 1011.3 |
| 20260831080030 | 66 | 278 | 4.0 | 7.0 | 0.00 | 0.02 | 0.00 | 85 | 1011.4 |
| 20260831074512 | 66 | 285 | 3.0 | 5.0 | 0.00 | 0.02 | 0.00 | 85 | 1011.5 |
| 20260831073025 | 66 | 284 | 2.0 | 4.0 | 0.00 | 0.02 | 0.00 | 85 | 1011.7 |
| 20260831071510 | 66 | 286 | 0.0 | 4.0 | 0.00 | 0.02 | 0.00 | 85 | 1011.7 |
| 20260831070009 | 66 | 279 | 3.0 | 7.0 | 0.00 | 0.03 | 0.00 | 85 | 1011.8 |
| 20260831064507 | 66 | 281 | 2.0 | 6.0 | 0.00 | 0.03 | 0.00 | 86 | 1012.1 |
| 20260831063005 | 66 | 294 | 0.0 | 2.0 | 0.00 | 0.03 | 0.00 | 86 | 1012.5 |
| 20260831061503 | 66 | 294 | 0.0 | 1.0 | 0.00 | 0.03 | 0.00 | 86 | 1012.7 |
| 20260831060003 | 66 | 355 | 1.0 | 4.0 | 0.00 | 0.03 | 0.00 | 86 | 1012.6 |
| 20260831054502 | 66 | 286 | 0.0 | 3.0 | 0.00 | 0.03 | 0.00 | 86 | 1012.7 |
| 20260831053100 | 66 | 292 | 0.0 | 2.0 | 0.00 | 0.03 | 0.00 | 85 | 1012.7 |
| 20260831051600 | 66 | 292 | 0.0 | 4.0 | 0.00 | 0.03 | 0.00 | 85 | 1013.0 |
| 20260831050058 | 66 | 300 | 0.0 | 3.0 | 0.00 | 0.04 | 0.03 | 85 | 1013.3 |
| 20260831044602 | 66 | 284 | 2.0 | 4.0 | 0.00 | 0.04 | 0.03 | 85 | 1013.0 |
| 20260831043056 | 67 | 271 | 3.0 | 7.0 | 0.00 | 0.04 | 0.03 | 85 | 1013.1 |
| 20260831041607 | 67 | 281 | 1.0 | 6.0 | 0.00 | 0.04 | 0.03 | 85 | 1012.9 |
| 20260831040057 | 66 | 288 | 2.0 | 7.0 | 0.00 | 0.04 | 0.03 | 85 | 1012.8 |
| 20260831034658 | 66 | 298 | 0.0 | 4.0 | 0.00 | 0.04 | 0.03 | 85 | 1013.1 |
| 20260831033054 | 66 | 296 | 2.0 | 3.0 | 0.00 | 0.04 | 0.03 | 85 | 1013.2 |
| 20260831031553 | 66 | 297 | 1.0 | 4.0 | 0.00 | 0.04 | 0.03 | 85 | 1013.0 |
| 20260831030100 | 67 | 297 | 0.0 | 4.0 | 0.00 | 0.04 | 0.03 | 86 | 1012.9 |
| 20260831024553 | 67 | 290 | 1.0 | 4.0 | 0.00 | 0.04 | 0.03 | 86 | 1012.9 |
| 20260831023052 | 67 | 284 | 0.0 | 4.0 | 0.00 | 0.04 | 0.03 | 86 | 1013.0 |
| 20260831021552 | 67 | 284 | 3.0 | 7.0 | 0.00 | 0.04 | 0.03 | 86 | 1012.8 |
| 20260831020052 | 67 | 285 | 3.0 | 8.0 | 0.00 | 0.04 | 0.03 | 86 | 1012.7 |
| 20260831014550 | 67 | 294 | 2.0 | 5.0 | 0.00 | 0.04 | 0.03 | 86 | 1012.4 |
| 20260831013055 | 67 | 288 | 3.0 | 5.0 | 0.00 | 0.04 | 0.03 | 86 | 1012.4 |